Location: Graswijk
(52.9667°N, 6.5500°E)
Time: 08:27:39
(UTC+00:00)

SPOT 3 Rocket - Pass Details

Date: 15 May 2026
Orbit: 774 x 790 km, 98.5° (Epoch: 6 June)

Event Time Altitude Azimuth Distance (km) Brightness Sun altitude
Exits shadow 21:09:24 11° 180° (S) 2,290 5.5 -11.8°
Maximum altitude 21:14:22 57° 259° (W) 912 4.0 -12.2°
Drops below altitude 10° 21:19:26 10° 338° (NNW) 2,336 7.4 -12.6°
Sets 21:21:48 0° 343° (NNW) 3,267 8.5 -12.8°
